[[{"header":{"parameterUnit":"m.s-1","parameterCategory":2,"la1":30.2991,"la2":30.254,"lo1":-89.0895,"lo2":-89.0444,"dy":0.0017,"dx":0.0017,"nx":28,"ny":28,"refTime":"2023-11-01T03:00:00:Z","depth":"0","parameterNumber":2,"parameterNumberName":"U-component_of_CURRENTS"},"data":[0,0,0,0,0,0,0,0,0,0,0,0,0,0,0,0,0,0,0,0,0,0,0,0,0,0,0,0,0,0,0,0,0,0,0,0,0,0,0,0,0,0,0,0,0,0,0,0,0,0,0,0,0,0,0,0,0,0,-0.304,-0.304,0,-0.3064,-0.3064,-0.3064,-0.3002,-0.3,-0.2998,-0.2997,-0.2961,-0.2962,-0.2963,0,0,0,0,0,0,0,0,0,0,0,0,0,-0.2992,-0.2993,-0.304,-0.304,-0.3041,-0.3064,-0.3064,-0.3064,-0.3002,-0.3,-0.2998,-0.2996,-0.2961,-0.2962,-0.2963,0,0,0,0,0,0,0,0,0,0,0,0,0,-0.3012,-0.2993,-0.3039,-0.3014,-0.3012,-0.3064,-0.3064,-0.3064,-0.3003,-0.3,-0.2997,-0.2995,-0.2961,-0.2962,-0.2963,-0.3022,0,0,-0.2966,-0.2967,0,0,0,0,0,0,0,0,-0.3011,-0.3014,-0.3017,-0.3016,-0.3014,-0.3029,-0.3035,-0.3048,-0.3003,-0.3004,-0.2997,-0.2994,-0.2982,-0.2981,-0.2989,-0.302,-0.3019,-0.2966,-0.2967,-0.2967,-0.2968,0,0,0,0,0,0,0,-0.301,-0.3013,-0.3047,-0.3018,-0.3016,-0.302,-0.3019,-0.3037,-0.3005,-0.3004,-0.3,-0.3007,-0.298,-0.2988,-0.2988,-0.3018,-0.2966,-0.2967,-0.2968,-0.2968,-0.3042,-0.3044,0,0,0,0,0,0,-0.3012,-0.3011,-0.3046,-0.3048,-0.3009,-0.3023,-0.3022,-0.3025,-0.3006,-0.3001,-0.3009,-0.3004,-0.2988,-0.2987,-0.2986,-0.3009,-0.2967,-0.2968,-0.2969,-0.3041,-0.3043,-0.3044,0,0,0,0,0,0,-0.301,-0.3014,-0.3045,-0.3032,-0.3036,-0.3026,-0.3031,-0.3027,-0.3023,-0.3011,-0.3004,-0.3008,-0.2986,-0.2985,-0.2996,-0.3008,-0.2969,-0.297,-0.3039,-0.3041,-0.3043,-0.3084,0,0,0,0,0,0,-0.3009,-0.3014,-0.3016,-0.3032,-0.3037,-0.3074,-0.3033,-0.3029,-0.3034,-0.3027,-0.3008,-0.3003,-0.2984,-0.2995,-0.2997,-0.3009,-0.297,-0.3038,-0.304,-0.3043,-0.3081,-0.3087,-0.3092,0,0,0,0,0,-0.3007,-0.3022,-0.3015,-0.302,-0.304,-0.3075,-0.3078,-0.3061,-0.3036,-0.3045,-0.3029,-0.3003,-0.3012,-0.2997,-0.3,-0.3012,-0.3036,-0.304,-0.3043,-0.3078,-0.3086,-0.3092,0,0,0,0,0,0,-0.3011,-0.3018,-0.3011,-0.3028,-0.3049,-0.3065,-0.3073,-0.3068,-0.3066,-0.3051,-0.3028,-0.3023,-0.3037,-0.3029,-0.3013,-0.3042,-0.3018,-0.3022,-0.3044,-0.3051,-0.3057,-0.3049,-0.2971,0,0,0,0,0,-0.3015,-0.3012,-0.3037,-0.3049,-0.3062,-0.307,-0.308,-0.3075,-0.3079,-0.3074,-0.3063,-0.3054,-0.3059,-0.3055,-0.306,-0.3085,-0.3067,-0.3093,-0.3099,-0.3104,-0.31,-0.3096,-0.31,-0.3054,-0.3054,-0.3054,0,0,-0.3016,-0.3022,-0.3019,-0.3048,-0.3059,-0.3086,-0.3068,-0.309,-0.3104,-0.3074,-0.3083,-0.3079,-0.3072,-0.309,-0.3095,-0.3078,-0.3109,-0.3108,-0.3112,-0.3105,-0.3099,-0.3104,-0.3107,-0.3056,-0.3056,-0.3055,0,0,-0.3023,-0.303,-0.3031,-0.3057,-0.3082,-0.3097,-0.3105,-0.3128,-0.3125,-0.3151,-0.3125,-0.3129,-0.3141,-0.3133,-0.3132,-0.3179,-0.3143,-0.318,-0.3198,-0.3194,-0.3197,-0.32,-0.3182,-0.3183,-0.3178,-0.3178,-0.3178,0,-0.303,-0.3029,-0.3043,-0.3065,-0.3083,-0.3103,-0.3125,-0.3145,-0.3164,-0.3169,-0.3153,-0.3169,-0.3161,-0.3176,-0.3184,-0.319,-0.3175,-0.3169,-0.32,-0.3202,-0.3204,-0.3185,-0.3185,-0.3181,-0.318,-0.318,-0.318,0,-0.303,-0.3045,-0.3058,-0.308,-0.3112,-0.3136,-0.3174,-0.3196,-0.3199,-0.3209,-0.3228,-0.3225,-0.3224,-0.3231,-0.3219,-0.3234,-0.3216,-0.321,-0.3177,-0.321,-0.3189,-0.3188,-0.3184,-0.3183,-0.3183,-0.3182,0,0,-0.2994,-0.3045,-0.3046,-0.3061,-0.3118,-0.3143,-0.3187,-0.3225,-0.324,-0.326,-0.3273,-0.3286,-0.3275,-0.3273,-0.3264,-0.3262,-0.3264,-0.324,-0.3239,-0.3213,-0.3243,-0.3169,-0.3161,-0.326,-0.326,-0.326,-0.3221,0,-0.2984,-0.3018,-0.305,-0.3089,-0.3111,-0.3161,-0.3202,-0.3243,-0.3268,-0.3292,-0.3297,-0.3307,-0.3295,-0.329,-0.3291,-0.3274,-0.3264,-0.3274,-0.3222,-0.322,-0.3143,-0.3158,-0.3032,-0.2981,-0.322,-0.322,-0.322,0,-0.2946,-0.2983,-0.3015,-0.3085,-0.31,-0.3131,-0.319,-0.3231,-0.3285,-0.3304,-0.3322,-0.3327,-0.3333,-0.3316,-0.3298,-0.3303,-0.3272,-0.3257,-0.3255,-0.3169,-0.3145,-0.2988,-0.297,-0.2941,-0.3219,-0.3219,-0.3219,0,-0.2871,-0.2944,-0.2963,-0.2988,-0.3082,-0.3104,-0.3149,-0.3218,-0.325,-0.3301,-0.3321,-0.3338,-0.3335,-0.3318,-0.3287,-0.3291,-0.3259,-0.3259,-0.3163,-0.3158,-0.3029,-0.3011,-0.2966,-0.3237,-0.3237,-0.3237,-0.3237,0,-0.2823,-0.2833,-0.2928,-0.2941,-0.2971,-0.3056,-0.3086,-0.3143,-0.3218,-0.3244,-0.3306,-0.3321,-0.3335,-0.3324,-0.3293,-0.3219,-0.3259,-0.3161,-0.3142,-0.304,-0.3025,-0.2976,-0.3008,-0.3236,-0.3236,-0.3236,-0.3236,0,-0.271,-0.2776,-0.2797,-0.2898,-0.2928,-0.2939,-0.3037,-0.3066,-0.3156,-0.3193,-0.3208,-0.3297,-0.3285,-0.3285,-0.3254,-0.3209,-0.3099,-0.312,-0.2993,-0.296,-0.2835,-0.2874,-0.2795,-0.2716,-0.3006,-0.3004,-0.3002,0,-0.2642,-0.2647,-0.2734,-0.275,-0.2786,-0.2833,-0.2872,-0.2998,-0.3036,-0.3163,-0.317,-0.321,-0.3201,-0.3152,-0.3086,-0.3012,-0.3007,-0.2857,-0.284,-0.2803,-0.2834,-0.2844,-0.2784,-0.2688,-0.2684,-0.2681,-0.2678,0,-0.2516,-0.2543,-0.2573,-0.2612,-0.2648,-0.2692,-0.276,-0.2791,-0.2932,-0.2985,-0.3047,-0.3062,-0.3047,-0.2936,-0.2862,-0.2802,-0.278,-0.2783,-0.2776,-0.2605,-0.258,-0.2502,-0.2745,-0.2648,-0.2651,-0.2653,-0.2655,-0.2656,-0.2397,-0.2384,-0.2429,-0.2444,-0.2495,-0.2524,-0.2497,-0.2598,-0.2645,-0.2689,-0.2827,-0.2815,-0.28,-0.2685,-0.2629,-0.2492,-0.2556,-0.2413,-0.247,-0.2487,-0.2389,-0.256,-0.2427,-0.2428,-0.243,-0.2431,-0.2432,0,-0.2239,-0.2251,-0.2264,-0.228,-0.2261,-0.2347,-0.2396,-0.2352,-0.234,-0.2452,-0.2475,-0.251,-0.2411,-0.2417,-0.232,-0.2213,-0.2152,-0.2161,-0.215,-0.2107,-0.2267,-0.2229,-0.2007,-0.2007,-0.2007,-0.2007,-0.2007,-0.2007,-0.2161,-0.2114,-0.2125,-0.2036,-0.2043,-0.1964,-0.1948,-0.193,-0.197,-0.1981,-0.2045,-0.2165,-0.2202,-0.2348,-0.2214,-0.2101,-0.2044,-0.1965,-0.2005,-0.214,-0.2169,-0.2196,-0.2164,-0.1932,-0.1933,-0.1736,-0.1735,-0.1734]},{"header":{"parameterUnit":"m.s-1","parameterCategory":2,"la1":30.2991,"la2":30.254,"lo1":-89.0895,"lo2":-89.0444,"dy":0.0017,"dx":0.0017,"nx":28,"ny":28,"refTime":"2023-11-01T03:00:00:Z","depth":"0","parameterNumber":3,"parameterNumberName":"V-component_of_CURRENTS"},"data":[0,0,0,0,0,0,0,0,0,0,0,0,0,0,0,0,0,0,0,0,0,0,0,0,0,0,0,0,0,0,0,0,0,0,0,0,0,0,0,0,0,0,0,0,0,0,0,0,0,0,0,0,0,0,0,0,0,0,-0.0346,-0.0345,0,-0.0234,-0.0233,-0.0231,-0.0163,-0.0163,-0.0162,-0.0162,0.0002,0.0005,0.001,0,0,0,0,0,0,0,0,0,0,0,0,0,-0.0451,-0.045,-0.0346,-0.0345,-0.0343,-0.0234,-0.0233,-0.0231,-0.0163,-0.0163,-0.0162,-0.0162,0.0,0.0005,0.001,0,0,0,0,0,0,0,0,0,0,0,0,0,-0.0379,-0.045,-0.0346,-0.0297,-0.0291,-0.0235,-0.0233,-0.0231,-0.0163,-0.0163,-0.0162,-0.0162,-0.0001,0.0005,0.0011,0.0041,0,0,0.0029,0.0032,0,0,0,0,0,0,0,0,-0.0383,-0.0375,-0.0305,-0.03,-0.0294,-0.0213,-0.021,-0.0138,-0.0163,-0.0211,-0.0162,-0.0162,-0.0066,-0.0055,-0.0034,0.0048,0.0055,0.003,0.0034,0.0036,0.0038,0,0,0,0,0,0,0,-0.0388,-0.0379,-0.0301,-0.0304,-0.0297,-0.0264,-0.0253,-0.0196,-0.014,-0.0206,-0.0201,-0.0191,-0.0063,-0.004,-0.003,0.0058,0.003,0.0035,0.0039,0.0042,0.0184,0.0184,0,0,0,0,0,0,-0.0407,-0.0384,-0.0304,-0.0297,-0.0339,-0.0263,-0.0251,-0.0239,-0.0142,-0.0127,-0.0191,-0.0188,-0.0051,-0.0037,-0.0023,0.0019,0.0036,0.0042,0.0046,0.0184,0.0184,0.0184,0,0,0,0,0,0,-0.0409,-0.0401,-0.0309,-0.0339,-0.0325,-0.0262,-0.0248,-0.0237,-0.0215,-0.0131,-0.0115,-0.0182,-0.005,-0.0032,0.0025,0.0026,0.0045,0.0051,0.0184,0.0184,0.0184,0.0105,0,0,0,0,0,0,-0.0413,-0.0402,-0.0402,-0.034,-0.0324,-0.0282,-0.0248,-0.0235,-0.0209,-0.0204,-0.0118,-0.0102,-0.0048,0.0015,0.0031,0.0035,0.0055,0.0184,0.0184,0.0184,0.0107,0.0102,0.0098,0,0,0,0,0,-0.0417,-0.0419,-0.0403,-0.0393,-0.0325,-0.0283,-0.0272,-0.0224,-0.021,-0.0203,-0.0145,-0.0105,0.0028,0.002,0.0039,0.0045,0.0184,0.0184,0.0184,0.0109,0.0103,0.0098,0,0,0,0,0,0,-0.0467,-0.0411,-0.0392,-0.0377,-0.0338,-0.0272,-0.0262,-0.0232,-0.0181,-0.0177,-0.01,-0.008,-0.0032,0.0018,0.0007,0.0086,0.0111,0.0115,0.0048,0.0043,0.0038,0.0021,0.006,0,0,0,0,0,-0.0479,-0.0466,-0.0408,-0.04,-0.0383,-0.0326,-0.0304,-0.0273,-0.022,-0.0197,-0.0137,-0.0072,-0.0016,0.002,0.0075,0.0122,0.017,0.0137,0.0133,0.0128,0.0127,0.0196,0.0197,0.0185,0.0185,0.0185,0,0,-0.0498,-0.0465,-0.0458,-0.041,-0.0376,-0.0357,-0.0311,-0.0285,-0.0267,-0.0187,-0.0146,-0.0089,-0.0009,0.0039,0.0066,0.0082,0.0155,0.0128,0.0124,0.0125,0.0196,0.0197,0.0198,0.0185,0.0185,0.0185,0,0,-0.053,-0.0499,-0.0499,-0.047,-0.0425,-0.0387,-0.0385,-0.0322,-0.0292,-0.0247,-0.0187,-0.013,-0.0044,0.0016,0.0056,0.006,0.0123,0.0076,0.0046,0.0113,0.0114,0.0116,0.0168,0.0176,0.0079,0.0079,0.0079,0,-0.0559,-0.0545,-0.0494,-0.0487,-0.0471,-0.0407,-0.0407,-0.0364,-0.0292,-0.0266,-0.0246,-0.0118,-0.0054,0.0015,0.0016,0.005,0.0091,0.0059,0.0106,0.0109,0.0112,0.0165,0.0174,0.0075,0.0076,0.0076,0.0076,0,-0.0584,-0.0577,-0.0577,-0.0545,-0.0521,-0.0512,-0.045,-0.0421,-0.038,-0.033,-0.0261,-0.0171,-0.0094,-0.0065,-0.0021,0.0035,0.0057,0.0084,0.0115,0.0108,0.0165,0.0176,0.007,0.0071,0.0072,0.0073,0,0,-0.0646,-0.0605,-0.0607,-0.0609,-0.0554,-0.0541,-0.0509,-0.0459,-0.044,-0.0362,-0.0325,-0.0223,-0.0173,-0.0124,-0.0055,0.0007,0.0064,0.0048,0.0054,0.009,0.0201,0.0254,0.0271,0.0097,0.0099,0.01,0.0228,0,-0.0687,-0.0697,-0.0656,-0.067,-0.0673,-0.061,-0.0588,-0.0533,-0.0472,-0.0418,-0.0315,-0.0254,-0.0194,-0.0159,-0.0087,0.0029,0.009,0.0026,0.0211,0.0217,0.0257,0.0285,0.0318,0.0439,0.0238,0.024,0.0242,0,-0.0724,-0.0729,-0.0748,-0.0737,-0.0733,-0.0724,-0.0681,-0.0655,-0.0557,-0.0507,-0.0421,-0.0336,-0.0226,-0.0182,0.0012,-0.0032,0.0072,0.0161,0.0169,0.0255,0.0291,0.0418,0.0466,0.0636,0.0259,0.0258,0.0256,0,-0.0793,-0.0795,-0.0816,-0.0811,-0.0782,-0.0778,-0.0761,-0.0682,-0.0662,-0.0561,-0.0527,-0.0384,-0.0311,-0.0159,0.0034,0.0022,0.0245,0.0256,0.0402,0.0406,0.0492,0.0501,0.0721,0.0384,0.0384,0.0384,0.0383,0,-0.0849,-0.0869,-0.0853,-0.0866,-0.0902,-0.0852,-0.0859,-0.0816,-0.0748,-0.0723,-0.0583,-0.0516,-0.0302,-0.0142,0.0021,0.0256,0.0243,0.0407,0.0451,0.0464,0.0469,0.0666,0.0732,0.0389,0.0388,0.0387,0.0386,0,-0.091,-0.0897,-0.0929,-0.0925,-0.0932,-0.0957,-0.0945,-0.0943,-0.0865,-0.0826,-0.0798,-0.0609,-0.0389,-0.0163,0.0098,0.0242,0.0572,0.0537,0.0532,0.0573,0.0853,0.0912,0.1172,0.1276,0.0713,0.0715,0.0717,0,-0.0936,-0.0957,-0.0988,-0.1021,-0.1022,-0.1049,-0.1067,-0.1014,-0.1003,-0.0873,-0.0856,-0.0638,-0.0462,-0.0049,0.025,0.0558,0.0685,0.0752,0.0742,0.0891,0.099,0.1024,0.1094,0.082,0.0823,0.0825,0.0826,0,-0.0991,-0.0996,-0.1027,-0.1102,-0.1139,-0.1182,-0.1195,-0.1202,-0.1128,-0.1059,-0.0916,-0.0761,-0.0346,0.0047,0.0449,0.0625,0.0886,0.0804,0.0975,0.1113,0.115,0.1262,0.0699,0.0845,0.0843,0.0842,0.0841,0.084,-0.1028,-0.1069,-0.1112,-0.118,-0.1235,-0.1289,-0.1308,-0.1297,-0.1266,-0.1137,-0.0971,-0.0697,-0.0128,0.0463,0.0684,0.1124,0.1068,0.1231,0.1295,0.1319,0.1417,0.0887,0.1071,0.107,0.107,0.107,0.1069,0,-0.1069,-0.1114,-0.1187,-0.1264,-0.1331,-0.134,-0.1374,-0.1358,-0.1309,-0.115,-0.0965,-0.0343,0.0229,0.0745,0.1389,0.1611,0.165,0.1699,0.1761,0.1813,0.1369,0.1372,0.161,0.161,0.161,0.161,0.161,0.1609,-0.1092,-0.1163,-0.1202,-0.132,-0.1373,-0.1426,-0.1434,-0.1397,-0.1283,-0.0978,-0.0646,-0.036,0.0386,0.146,0.2046,0.2078,0.2266,0.2223,0.2335,0.2027,0.1988,0.195,0.1971,0.2331,0.2332,0.2754,0.2759,0.2762]}],[{"header":{"parameterUnit":"m.s-1","parameterCategory":2,"la1":30.2991,"la2":30.254,"lo1":-89.0895,"lo2":-89.0444,"dy":0.0017,"dx":0.0017,"nx":28,"ny":28,"refTime":"2023-11-01T03:00:00:Z","depth":"2","parameterNumber":2,"parameterNumberName":"U-component_of_CURRENTS"},"data":[0,0,0,0,0,0,0,0,0,0,0,0,0,0,0,0,0,0,0,0,0,0,0,0,0,0,0,0,0,0,0,0,0,0,0,0,0,0,0,0,0,0,0,0,0,0,0,0,0,0,0,0,0,0,0,0,0,0,-0.2706,-0.2706,0,-0.2728,-0.2728,-0.2728,-0.2678,-0.2677,-0.2675,-0.2674,-0.2648,-0.2649,-0.2649,0,0,0,0,0,0,0,0,0,0,0,0,0,-0.2632,-0.2634,-0.2706,-0.2707,-0.2707,-0.2728,-0.2728,-0.2728,-0.2678,-0.2677,-0.2675,-0.2674,-0.2648,-0.2649,-0.2649,0,0,0,0,0,0,0,0,0,0,0,0,0,-0.2658,-0.2634,-0.2706,-0.2686,-0.2685,-0.2728,-0.2728,-0.2728,-0.2679,-0.2677,-0.2675,-0.2673,-0.2648,-0.2649,-0.2649,-0.2697,0,0,-0.2652,-0.2653,0,0,0,0,0,0,0,0,-0.2657,-0.2661,-0.2689,-0.2688,-0.2686,-0.27,-0.2692,-0.2716,-0.2679,-0.2679,-0.2674,-0.2672,-0.2664,-0.2664,-0.267,-0.2696,-0.2694,-0.2652,-0.2653,-0.2653,-0.2654,0,0,0,0,0,0,0,-0.2655,-0.266,-0.2712,-0.269,-0.2688,-0.268,-0.2681,-0.2697,-0.268,-0.2679,-0.2676,-0.2682,-0.2662,-0.2669,-0.2669,-0.2694,-0.2652,-0.2653,-0.2654,-0.2654,-0.2726,-0.2727,0,0,0,0,0,0,-0.2659,-0.2658,-0.2712,-0.2713,-0.2669,-0.2684,-0.2685,-0.2696,-0.2681,-0.2678,-0.2684,-0.268,-0.2669,-0.2668,-0.2668,-0.2697,-0.2653,-0.2654,-0.2655,-0.2725,-0.2726,-0.2728,0,0,0,0,0,0,-0.2657,-0.2664,-0.2711,-0.2687,-0.2693,-0.2687,-0.27,-0.2698,-0.2699,-0.2686,-0.2681,-0.2688,-0.2667,-0.2666,-0.2681,-0.2696,-0.2655,-0.2655,-0.2723,-0.2725,-0.2727,-0.2773,0,0,0,0,0,0,-0.2655,-0.2663,-0.2673,-0.2688,-0.2695,-0.2738,-0.2703,-0.27,-0.2708,-0.2702,-0.2688,-0.2684,-0.2665,-0.268,-0.2682,-0.2697,-0.2656,-0.2721,-0.2724,-0.2726,-0.2769,-0.2776,-0.2782,0,0,0,0,0,-0.2653,-0.2674,-0.2673,-0.2679,-0.2708,-0.2739,-0.2742,-0.2728,-0.271,-0.272,-0.2708,-0.2684,-0.2697,-0.2682,-0.2684,-0.27,-0.272,-0.2723,-0.2726,-0.2767,-0.2775,-0.2781,0,0,0,0,0,0,-0.265,-0.2672,-0.2671,-0.2698,-0.2718,-0.2731,-0.2741,-0.2738,-0.2739,-0.2729,-0.2708,-0.2704,-0.2722,-0.2713,-0.2697,-0.2729,-0.2703,-0.2707,-0.2733,-0.274,-0.2746,-0.274,-0.2657,0,0,0,0,0,-0.2657,-0.267,-0.2697,-0.2717,-0.2731,-0.2739,-0.275,-0.2746,-0.2752,-0.2749,-0.2743,-0.2737,-0.2742,-0.274,-0.2745,-0.277,-0.2753,-0.2781,-0.2787,-0.2792,-0.2789,-0.2787,-0.2792,-0.2738,-0.2738,-0.2738,0,0,-0.2656,-0.2674,-0.2678,-0.2716,-0.2729,-0.2755,-0.2739,-0.2762,-0.2777,-0.275,-0.2765,-0.2763,-0.2755,-0.2775,-0.2782,-0.2765,-0.28,-0.2796,-0.28,-0.2795,-0.2791,-0.2796,-0.28,-0.274,-0.274,-0.2739,0,0,-0.2665,-0.2686,-0.2699,-0.2725,-0.2755,-0.2768,-0.2778,-0.2801,-0.2802,-0.283,-0.2808,-0.2816,-0.283,-0.2822,-0.2821,-0.2869,-0.2835,-0.2872,-0.2893,-0.2892,-0.2896,-0.2899,-0.2884,-0.2885,-0.2871,-0.2871,-0.2871,0,-0.2663,-0.2686,-0.2709,-0.2737,-0.2756,-0.2776,-0.2799,-0.2819,-0.2841,-0.2848,-0.2837,-0.2857,-0.285,-0.2867,-0.2877,-0.2881,-0.2869,-0.2863,-0.2898,-0.2901,-0.2903,-0.2887,-0.2888,-0.2873,-0.2873,-0.2873,-0.2872,0,-0.2679,-0.2704,-0.272,-0.2756,-0.2786,-0.2811,-0.2848,-0.2873,-0.2881,-0.2892,-0.2917,-0.2916,-0.2918,-0.2926,-0.2914,-0.2934,-0.2916,-0.2908,-0.2875,-0.2911,-0.2892,-0.2892,-0.2877,-0.2876,-0.2875,-0.2875,0,0,-0.2645,-0.2714,-0.2716,-0.2735,-0.2795,-0.2819,-0.2864,-0.2902,-0.2922,-0.2946,-0.2964,-0.298,-0.2974,-0.2972,-0.2965,-0.2965,-0.2974,-0.2945,-0.2943,-0.2922,-0.296,-0.2885,-0.2878,-0.297,-0.2971,-0.2971,-0.2939,0,-0.2641,-0.2688,-0.2727,-0.2768,-0.2792,-0.2841,-0.2882,-0.2923,-0.2952,-0.2981,-0.2989,-0.3005,-0.2994,-0.2994,-0.2997,-0.2983,-0.2976,-0.2982,-0.2935,-0.2933,-0.2855,-0.2876,-0.2662,-0.261,-0.2939,-0.2939,-0.2939,0,-0.2624,-0.2663,-0.2701,-0.2769,-0.2785,-0.2817,-0.2878,-0.2918,-0.2976,-0.2998,-0.3021,-0.303,-0.3041,-0.3025,-0.3014,-0.3018,-0.299,-0.2976,-0.2974,-0.2886,-0.2858,-0.2628,-0.2598,-0.2939,-0.2939,-0.2939,-0.2939,0,-0.256,-0.2634,-0.2659,-0.2684,-0.2772,-0.2797,-0.2842,-0.2911,-0.2944,-0.3001,-0.3025,-0.3047,-0.3049,-0.3036,-0.301,-0.3012,-0.2989,-0.2985,-0.2891,-0.2885,-0.2682,-0.2658,-0.2968,-0.2968,-0.2969,-0.2969,-0.2969,0,-0.2524,-0.2539,-0.2631,-0.2644,-0.2677,-0.2758,-0.2792,-0.2849,-0.2924,-0.2951,-0.3016,-0.3032,-0.3052,-0.3046,-0.3018,-0.295,-0.2991,-0.2891,-0.2872,-0.2693,-0.2671,-0.294,-0.2938,-0.2967,-0.2968,-0.2968,-0.2968,0,-0.2428,-0.2494,-0.2518,-0.2612,-0.2642,-0.2657,-0.275,-0.2779,-0.2869,-0.2908,-0.2925,-0.3014,-0.3005,-0.3011,-0.2987,-0.2943,-0.2897,-0.2859,-0.2644,-0.26,-0.2792,-0.2793,-0.2752,-0.2749,-0.2747,-0.2745,-0.2743,0,-0.2375,-0.2383,-0.2465,-0.248,-0.2515,-0.2563,-0.26,-0.272,-0.2754,-0.2878,-0.2884,-0.293,-0.2916,-0.2876,-0.281,-0.2741,-0.2822,-0.2509,-0.2475,-0.2785,-0.2771,-0.2775,-0.2778,-0.2224,-0.2218,-0.2213,-0.2209,0,-0.2266,-0.2294,-0.2321,-0.2357,-0.2393,-0.243,-0.2494,-0.252,-0.2652,-0.2698,-0.2752,-0.2763,-0.2751,-0.2595,-0.253,-0.2463,-0.2508,-0.241,-0.2774,-0.2322,-0.2286,-0.2273,-0.2294,-0.2167,-0.2171,-0.2174,-0.2177,-0.2178,-0.2163,-0.2152,-0.2192,-0.2207,-0.2254,-0.2273,-0.2244,-0.233,-0.2364,-0.2394,-0.2522,-0.2472,-0.2474,-0.2269,-0.2166,-0.209,-0.2256,-0.2151,-0.2165,-0.2185,-0.214,-0.2102,-0.1939,-0.1942,-0.1944,-0.1946,-0.1948,0,-0.2022,-0.2032,-0.2043,-0.2054,-0.2033,-0.2114,-0.2149,-0.2095,-0.2068,-0.2141,-0.2148,-0.1966,-0.1877,-0.1891,-0.1712,-0.1684,-0.1664,-0.1613,-0.1581,-0.1623,-0.1661,-0.159,-0.1243,-0.1241,-0.1239,-0.1238,0,0,-0.1952,-0.1907,-0.1914,-0.1827,-0.1833,-0.1752,-0.1731,-0.1691,-0.1696,-0.163,-0.1612,-0.1761,-0.1829,-0.1534,-0.1466,-0.1325,-0.1457,-0.126,-0.1823,-0.1826,-0.1861,-0.1966,-0.1904,0,0,0,0,0]},{"header":{"parameterUnit":"m.s-1","parameterCategory":2,"la1":30.2991,"la2":30.254,"lo1":-89.0895,"lo2":-89.0444,"dy":0.0017,"dx":0.0017,"nx":28,"ny":28,"refTime":"2023-11-01T03:00:00:Z","depth":"2","parameterNumber":3,"parameterNumberName":"V-component_of_CURRENTS"},"data":[0,0,0,0,0,0,0,0,0,0,0,0,0,0,0,0,0,0,0,0,0,0,0,0,0,0,0,0,0,0,0,0,0,0,0,0,0,0,0,0,0,0,0,0,0,0,0,0,0,0,0,0,0,0,0,0,0,0,-0.0264,-0.0263,0,-0.0162,-0.016,-0.0159,-0.0096,-0.0095,-0.0095,-0.0095,0.0057,0.0061,0.0065,0,0,0,0,0,0,0,0,0,0,0,0,0,-0.0352,-0.0351,-0.0264,-0.0263,-0.0262,-0.0162,-0.016,-0.0159,-0.0096,-0.0095,-0.0095,-0.0095,0.0056,0.0061,0.0065,0,0,0,0,0,0,0,0,0,0,0,0,0,-0.0288,-0.0351,-0.0264,-0.0219,-0.0214,-0.0162,-0.016,-0.0159,-0.0096,-0.0095,-0.0095,-0.0095,0.0055,0.006,0.0066,0.0093,0,0,0.0083,0.0086,0,0,0,0,0,0,0,0,-0.0291,-0.0284,-0.0227,-0.0222,-0.0216,-0.0142,-0.0136,-0.0072,-0.0096,-0.014,-0.0095,-0.0095,-0.0006,0.0005,0.0024,0.01,0.0107,0.0084,0.0087,0.009,0.0091,0,0,0,0,0,0,0,-0.0296,-0.0288,-0.0223,-0.0225,-0.0219,-0.0186,-0.0176,-0.0123,-0.0074,-0.0136,-0.0131,-0.0121,-0.0002,0.0018,0.0028,0.0109,0.0084,0.0089,0.0092,0.0094,0.0225,0.0225,0,0,0,0,0,0,-0.0313,-0.0293,-0.0226,-0.022,-0.0255,-0.0185,-0.0174,-0.0165,-0.0076,-0.0063,-0.0122,-0.0119,0.0008,0.0021,0.0034,0.0074,0.009,0.0095,0.0098,0.0225,0.0225,0.0225,0,0,0,0,0,0,-0.0316,-0.0309,-0.023,-0.0254,-0.0242,-0.0184,-0.0174,-0.0164,-0.0144,-0.0066,-0.0051,-0.0114,0.0009,0.0026,0.0078,0.008,0.0098,0.0103,0.0225,0.0225,0.0225,0.0153,0,0,0,0,0,0,-0.0319,-0.031,-0.0312,-0.0256,-0.0241,-0.0207,-0.0174,-0.0162,-0.0139,-0.0134,-0.0054,-0.004,0.0011,0.0069,0.0084,0.0088,0.0107,0.0225,0.0225,0.0225,0.0155,0.015,0.0146,0,0,0,0,0,-0.0322,-0.0327,-0.0313,-0.0305,-0.0246,-0.0207,-0.0197,-0.0153,-0.014,-0.0134,-0.008,-0.0042,0.008,0.0074,0.0091,0.0097,0.0225,0.0225,0.0225,0.0157,0.0151,0.0146,0,0,0,0,0,0,-0.0367,-0.0319,-0.0303,-0.0293,-0.0258,-0.0197,-0.0189,-0.0161,-0.0114,-0.011,-0.0039,-0.002,0.0024,0.007,0.0061,0.0135,0.0158,0.0162,0.01,0.0095,0.0091,0.0076,0.0112,0,0,0,0,0,-0.038,-0.0371,-0.032,-0.0315,-0.03,-0.0247,-0.0228,-0.0199,-0.015,-0.013,-0.0074,-0.0014,0.0038,0.0073,0.0123,0.0167,0.0212,0.0182,0.0177,0.0173,0.0172,0.0239,0.024,0.0226,0.0226,0.0226,0,0,-0.0396,-0.037,-0.0365,-0.0324,-0.0293,-0.0277,-0.0235,-0.0211,-0.0194,-0.012,-0.0082,-0.003,0.0044,0.009,0.0115,0.013,0.0199,0.0173,0.0169,0.0171,0.0239,0.024,0.0242,0.0226,0.0226,0.0226,0,0,-0.0427,-0.0403,-0.0406,-0.038,-0.0341,-0.0306,-0.0304,-0.0247,-0.0219,-0.0178,-0.0122,-0.0069,0.0011,0.0068,0.0106,0.011,0.0168,0.0123,0.0098,0.0161,0.0163,0.0165,0.0213,0.022,0.0127,0.0127,0.0127,0,-0.0452,-0.0446,-0.0402,-0.0397,-0.0382,-0.0325,-0.0325,-0.0286,-0.0219,-0.0195,-0.0177,-0.0058,0.0002,0.0069,0.0069,0.01,0.0139,0.0109,0.0155,0.0158,0.0161,0.0211,0.0219,0.0124,0.0124,0.0124,0.0125,0,-0.0479,-0.0476,-0.0477,-0.0451,-0.0429,-0.0421,-0.0365,-0.0339,-0.0301,-0.0254,-0.019,-0.0106,-0.0034,-0.0006,0.0035,0.0089,0.0108,0.0134,0.0164,0.0158,0.0211,0.0221,0.0119,0.012,0.0121,0.0122,0,0,-0.0535,-0.0503,-0.0506,-0.0508,-0.046,-0.0448,-0.0419,-0.0373,-0.0355,-0.0283,-0.0247,-0.0151,-0.0104,-0.0058,0.0006,0.0066,0.012,0.0103,0.0109,0.0143,0.025,0.0287,0.0303,0.0152,0.0154,0.0155,0.0273,0,-0.0574,-0.0587,-0.0552,-0.0566,-0.0569,-0.0511,-0.0491,-0.0441,-0.0384,-0.0333,-0.0236,-0.0179,-0.0123,-0.0091,-0.0022,0.0087,0.0146,0.0085,0.0259,0.0264,0.0291,0.0315,0.0274,0.0379,0.0284,0.0286,0.0287,0,-0.0613,-0.0619,-0.0638,-0.0628,-0.0624,-0.0617,-0.0578,-0.0554,-0.0462,-0.0416,-0.0333,-0.0254,-0.0149,-0.0109,0.0074,0.0031,0.013,0.0213,0.022,0.0289,0.032,0.0373,0.0401,0.0305,0.0303,0.0302,0.0301,0,-0.0678,-0.068,-0.0702,-0.0697,-0.067,-0.0667,-0.0652,-0.058,-0.0562,-0.0466,-0.0435,-0.0298,-0.023,-0.0086,0.0092,0.0083,0.029,0.0304,0.043,0.0433,0.0451,0.0453,0.0427,0.0426,0.0426,0.0426,0.0426,0,-0.0731,-0.075,-0.0737,-0.0749,-0.0783,-0.0737,-0.0745,-0.0705,-0.0642,-0.0619,-0.0488,-0.0428,-0.0221,-0.0073,0.008,0.0293,0.0287,0.0434,0.0474,0.0424,0.0422,0.0401,0.0396,0.043,0.0429,0.0428,0.0428,0,-0.079,-0.0778,-0.0809,-0.0804,-0.0811,-0.0836,-0.0827,-0.0826,-0.0755,-0.0719,-0.0693,-0.0519,-0.0318,-0.0103,0.0144,0.0277,0.0475,0.0548,0.0469,0.0499,0.0573,0.0563,0.0699,0.0701,0.0703,0.0705,0.0706,0,-0.0817,-0.0836,-0.0865,-0.0896,-0.0897,-0.0924,-0.0942,-0.0894,-0.0885,-0.0768,-0.0753,-0.0555,-0.0395,-0.0015,0.0256,0.0541,0.0538,0.0656,0.064,0.058,0.0605,0.0592,0.058,0.063,0.0631,0.0631,0.0632,0,-0.087,-0.0875,-0.0903,-0.0974,-0.1008,-0.1049,-0.1063,-0.1069,-0.1002,-0.0942,-0.0816,-0.0677,-0.0306,0.0019,0.0385,0.0537,0.0609,0.0678,0.0656,0.0565,0.0525,0.0546,0.0535,0.0637,0.0637,0.0636,0.0636,0.0636,-0.0907,-0.0945,-0.0984,-0.1048,-0.11,-0.115,-0.1168,-0.1158,-0.1132,-0.1015,-0.0872,-0.0633,-0.0314,0.0214,0.0477,0.0707,0.0699,0.0752,0.0746,0.0741,0.0709,0.0675,0.0809,0.0809,0.081,0.081,0.081,0,-0.0949,-0.0989,-0.1057,-0.1127,-0.119,-0.1201,-0.1231,-0.1214,-0.1171,-0.1031,-0.087,-0.0507,-0.013,0.0194,0.0576,0.0806,0.0772,0.0825,0.0743,0.0736,0.073,0.0695,0.0793,0.0794,0.0794,0.0795,0,0,-0.0972,-0.1038,-0.1072,-0.1181,-0.1232,-0.1283,-0.1291,-0.125,-0.1149,-0.0995,-0.0812,-0.0537,-0.0129,0.0144,0.0434,0.063,0.0613,0.0631,0.0619,0.048,0.0472,0.0662,0.0597,0,0,0,0,0]}],[{"header":{"parameterUnit":"m.s-1","parameterCategory":2,"la1":30.2991,"la2":30.254,"lo1":-89.0895,"lo2":-89.0444,"dy":0.0017,"dx":0.0017,"nx":28,"ny":28,"refTime":"2023-11-01T03:00:00:Z","depth":"4","parameterNumber":2,"parameterNumberName":"U-component_of_CURRENTS"},"data":[0,0,0,0,0,0,0,0,0,0,0,0,0,0,0,0,0,0,0,0,0,0,0,0,0,0,0,0,0,0,0,0,0,0,0,0,0,0,0,0,0,0,0,0,0,0,0,0,0,0,0,0,0,0,0,0,0,0,-0.1903,-0.1903,0,-0.1959,-0.1959,-0.196,-0.1981,-0.1981,-0.1981,-0.1981,-0.203,-0.2031,-0.2033,0,0,0,0,0,0,0,0,0,0,0,0,0,-0.1782,-0.1784,-0.1903,-0.1903,-0.1904,-0.1958,-0.1959,-0.196,-0.1981,-0.1981,-0.1981,-0.1981,-0.203,-0.2031,-0.2033,0,0,0,0,0,0,0,0,0,0,0,0,0,-0.1834,-0.1784,-0.1902,-0.1922,-0.1925,-0.1958,-0.1959,-0.196,-0.1981,-0.1981,-0.1981,-0.1981,-0.2029,-0.2031,-0.2033,-0.2046,0,0,-0.2039,-0.204,0,0,0,0,0,0,0,0,-0.1831,-0.1838,-0.1919,-0.1921,-0.1924,-0.1964,-0.1935,-0.1989,-0.1981,-0.1958,-0.1981,-0.1981,-0.2008,-0.2012,-0.2021,-0.2049,-0.2051,-0.2039,-0.2041,-0.2041,-0.2042,0,0,0,0,0,0,0,-0.1828,-0.1836,-0.1923,-0.192,-0.1923,-0.1917,-0.1925,-0.1945,-0.1982,-0.196,-0.1962,-0.1971,-0.2009,-0.2019,-0.2022,-0.2052,-0.2039,-0.2041,-0.2042,-0.2043,-0.2154,-0.2156,0,0,0,0,0,0,-0.1826,-0.1833,-0.1922,-0.1925,-0.1878,-0.192,-0.1928,-0.195,-0.1982,-0.1987,-0.1971,-0.1971,-0.2015,-0.202,-0.2024,-0.2101,-0.2041,-0.2043,-0.2044,-0.2153,-0.2155,-0.2157,0,0,0,0,0,0,-0.1823,-0.1834,-0.1919,-0.188,-0.1891,-0.1923,-0.1946,-0.1951,-0.1989,-0.199,-0.1995,-0.2007,-0.2015,-0.2021,-0.2069,-0.2101,-0.2044,-0.2046,-0.2151,-0.2153,-0.2156,-0.2217,0,0,0,0,0,0,-0.182,-0.1833,-0.1864,-0.1881,-0.1893,-0.1958,-0.1947,-0.1952,-0.1993,-0.1996,-0.2022,-0.2025,-0.2016,-0.2066,-0.2071,-0.2102,-0.2048,-0.2148,-0.2152,-0.2155,-0.2213,-0.2222,-0.2229,0,0,0,0,0,-0.1815,-0.185,-0.1865,-0.1877,-0.193,-0.196,-0.1966,-0.1986,-0.1995,-0.2019,-0.204,-0.2026,-0.209,-0.207,-0.2075,-0.2107,-0.2147,-0.2151,-0.2155,-0.2209,-0.222,-0.2229,0,0,0,0,0,0,-0.1803,-0.1856,-0.1873,-0.1921,-0.1949,-0.1964,-0.1994,-0.2007,-0.2043,-0.2055,-0.2052,-0.2057,-0.2109,-0.2105,-0.2082,-0.215,-0.2115,-0.212,-0.2155,-0.2165,-0.2172,-0.2165,-0.2049,0,0,0,0,0,-0.1819,-0.187,-0.19,-0.1942,-0.196,-0.1985,-0.2007,-0.2022,-0.2047,-0.2065,-0.2085,-0.2106,-0.2126,-0.2143,-0.216,-0.2202,-0.2183,-0.2226,-0.2234,-0.2241,-0.224,-0.2245,-0.2252,-0.217,-0.217,-0.2169,0,0,-0.1827,-0.1863,-0.1893,-0.1946,-0.1971,-0.2002,-0.1999,-0.2043,-0.2074,-0.2065,-0.2127,-0.2141,-0.2145,-0.2188,-0.221,-0.2191,-0.2256,-0.2246,-0.2251,-0.2246,-0.2249,-0.2257,-0.2264,-0.2172,-0.2172,-0.2171,0,0,-0.1849,-0.1902,-0.1942,-0.1973,-0.2021,-0.2038,-0.2058,-0.2098,-0.2125,-0.218,-0.2179,-0.2214,-0.2255,-0.2258,-0.2263,-0.2328,-0.2299,-0.2341,-0.2376,-0.2381,-0.2388,-0.2393,-0.2379,-0.2382,-0.2343,-0.2343,-0.2343,0,-0.1852,-0.1909,-0.1956,-0.1992,-0.202,-0.2058,-0.2089,-0.2125,-0.2177,-0.2202,-0.2211,-0.2274,-0.2283,-0.2316,-0.2339,-0.2345,-0.2338,-0.2337,-0.239,-0.2395,-0.2399,-0.2383,-0.2387,-0.2347,-0.2346,-0.2346,-0.2346,0,-0.1891,-0.1943,-0.1968,-0.2032,-0.207,-0.2108,-0.2153,-0.2204,-0.2245,-0.227,-0.2334,-0.2351,-0.2379,-0.2395,-0.2389,-0.243,-0.2411,-0.24,-0.2361,-0.2411,-0.2392,-0.2394,-0.2352,-0.235,-0.2349,-0.2349,0,0,-0.1868,-0.1974,-0.1985,-0.2018,-0.2095,-0.2122,-0.2192,-0.2248,-0.2291,-0.235,-0.2395,-0.244,-0.2452,-0.2459,-0.2461,-0.2473,-0.25,-0.2457,-0.2455,-0.2434,-0.2503,-0.2343,-0.233,-0.2502,-0.2503,-0.2503,-0.2477,0,-0.1877,-0.1948,-0.2004,-0.2069,-0.2102,-0.2167,-0.2224,-0.2286,-0.2342,-0.24,-0.2431,-0.2475,-0.2475,-0.2495,-0.251,-0.2505,-0.2509,-0.2507,-0.2465,-0.2463,-0.2308,-0.2328,-0.2506,-0.2478,-0.2478,-0.2478,-0.2479,0,-0.1881,-0.1932,-0.1997,-0.2087,-0.2109,-0.216,-0.2254,-0.2308,-0.2394,-0.2437,-0.2488,-0.2513,-0.255,-0.254,-0.2552,-0.2554,-0.2535,-0.2525,-0.2523,-0.235,-0.2306,-0.2419,-0.2482,-0.2481,-0.2481,-0.2481,-0.2481,0,-0.1821,-0.192,-0.1975,-0.2006,-0.2114,-0.2165,-0.2227,-0.2321,-0.2367,-0.2459,-0.2496,-0.2546,-0.257,-0.257,-0.2557,-0.2562,-0.2552,-0.2548,-0.2383,-0.2372,-0.2497,-0.2492,-0.2546,-0.2546,-0.2546,-0.2546,-0.2546,0,-0.1786,-0.183,-0.1959,-0.1984,-0.205,-0.2142,-0.2211,-0.2286,-0.238,-0.2415,-0.2507,-0.2523,-0.2582,-0.2584,-0.2566,-0.2467,-0.2554,-0.238,-0.2351,-0.2525,-0.2523,-0.2498,-0.2493,-0.2545,-0.2545,-0.2546,-0.2546,0,-0.1696,-0.1787,-0.1846,-0.1975,-0.2021,-0.2065,-0.219,-0.2231,-0.2342,-0.239,-0.2419,-0.2514,-0.2507,-0.2534,-0.2526,-0.245,-0.2391,-0.2335,-0.251,-0.2493,-0.2207,-0.2206,-0.2142,-0.2136,-0.2131,-0.2126,-0.2123,0,-0.1651,-0.1678,-0.1816,-0.1853,-0.1915,-0.2,-0.2054,-0.219,-0.2221,-0.2349,-0.2346,-0.2404,-0.2437,-0.2292,-0.2347,-0.2286,-0.2262,-0.2219,-0.2219,-0.2186,-0.2165,-0.2172,-0.2178,-0.2115,-0.2114,-0.2112,-0.2111,0,-0.155,-0.1615,-0.1667,-0.1743,-0.1814,-0.1868,-0.1953,-0.1964,-0.2096,-0.2222,-0.22,-0.2194,-0.2183,-0.217,-0.2137,-0.2099,-0.2242,-0.2166,-0.2176,-0.2176,-0.2153,-0.2139,-0.215,-0.2094,-0.2096,-0.2098,-0.2099,0,-0.1471,-0.1481,-0.156,-0.1607,-0.1691,-0.1707,-0.1772,-0.1803,-0.1856,-0.2005,-0.1986,-0.2056,-0.2147,-0.2071,-0.204,-0.1989,-0.1962,-0.19,-0.1924,-0.1944,-0.1891,-0.1834,-0.1639,0,0,0,0,0,-0.138,-0.1379,-0.1416,-0.1459,-0.1533,-0.1574,-0.1689,-0.1755,-0.1888,-0.1817,-0.1895,-0.1873,-0.1841,-0.1884,-0.1787,-0.1952,-0.1972,-0.1832,-0.1914,-0.1997,-0.2017,-0.1974,0,0,0,0,0,0,-0.1321,-0.1352,-0.1364,-0.1321,-0.1318,-0.1377,-0.1443,-0.1538,-0.1504,-0.1648,-0.1635,-0.1746,-0.1738,-0.1851,-0.1739,-0.1751,-0.1761,-0.1886,-0.188,-0.1985,-0.2004,-0.202,-0.1983,0,0,0,0,0]},{"header":{"parameterUnit":"m.s-1","parameterCategory":2,"la1":30.2991,"la2":30.254,"lo1":-89.0895,"lo2":-89.0444,"dy":0.0017,"dx":0.0017,"nx":28,"ny":28,"refTime":"2023-11-01T03:00:00:Z","depth":"4","parameterNumber":3,"parameterNumberName":"V-component_of_CURRENTS"},"data":[0,0,0,0,0,0,0,0,0,0,0,0,0,0,0,0,0,0,0,0,0,0,0,0,0,0,0,0,0,0,0,0,0,0,0,0,0,0,0,0,0,0,0,0,0,0,0,0,0,0,0,0,0,0,0,0,0,0,-0.0179,-0.0178,0,-0.011,-0.0109,-0.0108,-0.0063,-0.0063,-0.0063,-0.0062,0.0057,0.006,0.0063,0,0,0,0,0,0,0,0,0,0,0,0,0,-0.0227,-0.0226,-0.0179,-0.0178,-0.0177,-0.011,-0.0109,-0.0108,-0.0063,-0.0063,-0.0062,-0.0062,0.0056,0.006,0.0063,0,0,0,0,0,0,0,0,0,0,0,0,0,-0.0186,-0.0226,-0.0179,-0.0147,-0.0144,-0.011,-0.0109,-0.0108,-0.0063,-0.0063,-0.0062,-0.0062,0.0055,0.0059,0.0064,0.0085,0,0,0.0077,0.0079,0,0,0,0,0,0,0,0,-0.0189,-0.0184,-0.0153,-0.0149,-0.0146,-0.0095,-0.0082,-0.0041,-0.0063,-0.0093,-0.0062,-0.0062,0.001,0.0018,0.0031,0.009,0.0095,0.0078,0.008,0.0082,0.0084,0,0,0,0,0,0,0,-0.0191,-0.0187,-0.0151,-0.0152,-0.0148,-0.0121,-0.0115,-0.0074,-0.0043,-0.009,-0.0087,-0.0081,0.0013,0.0026,0.0034,0.0097,0.0078,0.0082,0.0084,0.0086,0.0188,0.0188,0,0,0,0,0,0,-0.0204,-0.019,-0.0153,-0.0149,-0.0167,-0.0121,-0.0114,-0.0111,-0.0044,-0.0034,-0.0081,-0.0079,0.0019,0.0029,0.0039,0.007,0.0082,0.0087,0.0089,0.0188,0.0188,0.0188,0,0,0,0,0,0,-0.0206,-0.0202,-0.0156,-0.0168,-0.016,-0.0121,-0.0117,-0.011,-0.0098,-0.0038,-0.0027,-0.0077,0.0019,0.0032,0.0072,0.0075,0.0089,0.0093,0.0188,0.0188,0.0188,0.0132,0,0,0,0,0,0,-0.0207,-0.0203,-0.0208,-0.0169,-0.016,-0.0142,-0.0118,-0.0109,-0.0095,-0.0092,-0.0031,-0.0019,0.0021,0.0065,0.0076,0.0082,0.0096,0.0188,0.0188,0.0188,0.0134,0.013,0.0127,0,0,0,0,0,-0.0209,-0.0217,-0.0209,-0.0205,-0.0168,-0.0142,-0.0136,-0.0105,-0.0096,-0.0093,-0.0052,-0.0021,0.0074,0.0069,0.0082,0.0089,0.0188,0.0188,0.0188,0.0135,0.0131,0.0127,0,0,0,0,0,0,-0.0238,-0.0212,-0.0202,-0.0201,-0.0178,-0.0135,-0.0132,-0.0112,-0.0078,-0.0076,-0.0019,-0.0005,0.0029,0.0066,0.0059,0.0118,0.0136,0.0138,0.0091,0.0087,0.0084,0.0072,0.01,0,0,0,0,0,-0.0249,-0.0252,-0.0217,-0.0219,-0.0209,-0.0173,-0.0161,-0.0141,-0.0105,-0.0091,-0.0048,-0.0001,0.004,0.0068,0.0107,0.0142,0.0179,0.0155,0.0151,0.0148,0.0147,0.0206,0.0208,0.0188,0.0188,0.0188,0,0,-0.0262,-0.0248,-0.025,-0.0226,-0.0206,-0.0196,-0.0165,-0.0151,-0.014,-0.0082,-0.0055,-0.0014,0.0045,0.0081,0.01,0.0113,0.0171,0.0148,0.0145,0.0146,0.0207,0.0209,0.0211,0.0188,0.0188,0.0188,0,0,-0.0287,-0.0277,-0.0285,-0.0268,-0.0244,-0.022,-0.022,-0.0181,-0.0161,-0.0131,-0.0088,-0.0044,0.0016,0.0064,0.0095,0.0097,0.0145,0.0107,0.009,0.0147,0.0149,0.0151,0.019,0.0196,0.0112,0.0112,0.0112,0,-0.0304,-0.0309,-0.0283,-0.0283,-0.0275,-0.0235,-0.0238,-0.021,-0.0163,-0.0145,-0.0132,-0.0038,0.001,0.0066,0.0067,0.0091,0.0123,0.0099,0.0142,0.0145,0.0149,0.0188,0.0196,0.011,0.011,0.011,0.011,0,-0.0329,-0.0334,-0.0337,-0.0326,-0.0313,-0.0311,-0.0271,-0.0254,-0.0228,-0.0193,-0.0142,-0.0075,-0.0017,0.0006,0.0039,0.0088,0.0101,0.0124,0.0149,0.0147,0.0189,0.0198,0.0106,0.0107,0.0108,0.0108,0,0,-0.0367,-0.0358,-0.0362,-0.0367,-0.0338,-0.0332,-0.0313,-0.0282,-0.0271,-0.0215,-0.0188,-0.0109,-0.0072,-0.0034,0.0019,0.0074,0.0123,0.0104,0.0108,0.0136,0.0235,0.0215,0.0223,0.0152,0.0153,0.0155,0.025,0,-0.0397,-0.0417,-0.0398,-0.0415,-0.042,-0.0382,-0.0372,-0.0336,-0.0296,-0.0259,-0.0178,-0.0135,-0.0086,-0.0061,0.0002,0.0092,0.0145,0.0094,0.0239,0.0243,0.0221,0.0233,0.0159,0.0257,0.0259,0.0261,0.0262,0,-0.0428,-0.0439,-0.0462,-0.0465,-0.0464,-0.0465,-0.0444,-0.0429,-0.0362,-0.0328,-0.026,-0.0197,-0.0107,-0.0072,0.0087,0.005,0.0134,0.0205,0.0211,0.0219,0.024,0.0265,0.0279,0.0278,0.0276,0.0275,0.0274,0,-0.0471,-0.0485,-0.051,-0.051,-0.0501,-0.0505,-0.0502,-0.0452,-0.0442,-0.0371,-0.0349,-0.0232,-0.0177,-0.0051,0.0096,0.0093,0.0266,0.0283,0.0346,0.0345,0.0359,0.0356,0.0392,0.0392,0.0392,0.0392,0.0391,0,-0.0505,-0.0527,-0.0537,-0.055,-0.0587,-0.056,-0.0579,-0.0553,-0.0511,-0.0496,-0.0394,-0.0348,-0.0169,-0.0048,0.0085,0.024,0.0262,0.0344,0.0372,0.0331,0.0324,0.0365,0.036,0.0395,0.0394,0.0394,0.0393,0,-0.0538,-0.0545,-0.0579,-0.0594,-0.0607,-0.0634,-0.0648,-0.0652,-0.0607,-0.0582,-0.0564,-0.0428,-0.0269,-0.0089,0.0122,0.0215,0.0372,0.0421,0.0353,0.0376,0.0413,0.0405,0.0496,0.0496,0.0496,0.0496,0.0496,0,-0.0554,-0.0574,-0.0623,-0.0657,-0.0668,-0.0706,-0.073,-0.0707,-0.0703,-0.0626,-0.0612,-0.0465,-0.0355,-0.007,0.011,0.0357,0.0391,0.0459,0.0446,0.0407,0.0426,0.0417,0.0409,0.0497,0.0497,0.0497,0.0497,0,-0.058,-0.0601,-0.0631,-0.0707,-0.075,-0.0794,-0.0821,-0.0822,-0.0781,-0.0748,-0.0633,-0.0477,-0.03,-0.0077,0.0114,0.0291,0.0408,0.0461,0.0462,0.0451,0.0409,0.0426,0.0418,0.0497,0.0497,0.0497,0.0497,0,-0.0601,-0.0634,-0.0682,-0.0743,-0.081,-0.0853,-0.0863,-0.0839,-0.0825,-0.0726,-0.0691,-0.0486,-0.0365,-0.0111,0.0066,0.0235,0.0275,0.0318,0.0328,0.0329,0.025,0.0171,0.0213,0,0,0,0,0,-0.0614,-0.0652,-0.0715,-0.078,-0.0847,-0.088,-0.0908,-0.0901,-0.0862,-0.0787,-0.0732,-0.0559,-0.0283,-0.0162,0.0006,0.0055,0.0289,0.0253,0.034,0.05,0.0499,0.0433,0,0,0,0,0,0,-0.0625,-0.0684,-0.0714,-0.0796,-0.0843,-0.0909,-0.0925,-0.0899,-0.0843,-0.078,-0.0627,-0.0538,-0.0266,-0.0375,0.0004,0.0055,0.0127,0.0388,0.0391,0.05,0.05,0.0499,0.0431,0,0,0,0,0]}]]